カタログに戻る

STARLINK-3233

運用中通信VLEO
NORAD 49746·PAYLOAD·🇺🇸 United States

打ち上げ Dec 2, 2021 から Cape Canaveral Space Force Station

Loading…

次のパス (今後24時間)

TLE

最新Source: CelesTrak SupGP

元期: Sep 15, 2026, 02:17 UTC

1 49746C 21115Y   26258.09562500  .00014558  00000+0  41750-3 0  2580
2 49746  53.1609  13.0228 0001522  81.4274  87.7704 15.35316539    13

AllMySatでSTARLINK-3233をリアルタイム追跡

Download on the App Store